Weather in Kashino

Russia / Vladimir Oblast     55°59′52″N   38°51′18″E
temp.,
°C
wind,
m/s
gust,
m/s
humid.,
%
clouds,
%
prec.,
mm/h
press.,
hPa
HPBL,
m
21 january, fri
fri2100:00−6s61393100 0.1 1003589
03:00−6s51395100 1.1 1002535
06:00−6sse41195100 1.0 1002484
09:00−7sse41195100 1.8 1002503
12:00−6se51195100 1.1 1001568
15:00−6se51095100 2.6 1000667
18:00−7se41095100 1.1 999627
21:00−7se41095100 1.9 999486
22 january, sat
sat2200:00−6se3896100 0.6 1000328
03:00−9se389898 0.7 1002174
06:00−8se41095100 0.3 1003360
09:00−8ese4109593 0.7 1005383
12:00−6ese4894100 0.4 1007410
15:00−5ese3795100 0.8 1009403
18:00−7ese379686 0.3 1012224
21:00−10e249890 0.4 101562
23 january, sun
sun2300:00−12e239979 0.1 101745
03:00−18e11100100 0.1 10209
06:00−17ne1110083 0.1 10229
09:00−19e1110092 0.1 102510
12:00−11e019595 0.1 1027110
15:00−9ne019661 0.1 102921
18:00−17ne1110075 0.0 10329
21:00−20n11100100 0.0 10349
24 january, mon
mon2400:00−21nne11100100 0.0 10369
03:00−22nne11100100 0.0 10379
06:00−22n22100100 0.0 103816
09:00−23ne11100100 0.0 103910
12:00−11e129585 0.0 1038125
15:00−8ese11965 0.0 103648
18:00−16ne2210076 0.0 10369
21:00−18ese1110097 0.0 103611
25 january, tue
tue2500:00−20se11100100 0.0 10349
03:00−21se11100100 0.1 10339
06:00−23sse11100100 0.0 103015
09:00−23s12100100 0.1 102923
12:00−12s369595 0.0 1026189
15:00−10s389571 0.0 1023312
18:00−13sse289877 0.0 1022146
21:00−15sse389868 0.0 1021150